Regional Weather Roundup
Issued by NWS

Home | Current Version | Previous Version | Text Only | Print | Product List | Glossary On
Versions: 1 2 3 4 5 6 7 8 9 10 11 12 13 14 15 16 17 18 19 20 21 22 23 24 25 26 27 28 29 30 31 32 33 34 35 36 37 38 39 40 41 42 43 44 45 46 47 48 49 50
672
ASUS44 KJAN 151710
RWRMS

MISSISSIPPI HOURLY WEATHER ROUNDUP
NATIONAL WEATHER SERVICE JACKSON MS
1200 PM CDT TUE APR 15 2014

NOTE: "FAIR: INDICATES FEW OR NO CLOUDS BELOW 12,000 FEET WITH NO
SIGNIFICANT WEATHER AND/OR OBSTRUCTIONS TO VISIBILITY.

MSZ001>002-007>008-010>013-018>021-025>028-034>036-151800-
NORTHWEST MISSISSIPPI

CITY           SKY/WX    TMP DP  RH WIND       PRES   REMARKS
CLARKSDALE       N/A     46  28  49 N17G28    30.27F
CLEVELAND      FAIR      47  31  54 N16G24    30.27S
GREENWOOD      SUNNY     48  27  44 N15G25    30.24R
GREENVILLE     SUNNY     49  31  49 N18G28    30.27R
GRENADA        FAIR      46  25  42 N16G28    30.23S
OLIVE BRANCH   SUNNY     43  23  45 N20G28    30.24R
OXFORD         FAIR      45  18  33 N10G23    30.22S
TUNICA         SUNNY     45  30  57 N16G25    30.28R
$$

MSZ003>006-009-014>017-022>024-029>033-037>039-151800-
NORTHEAST MISSISSIPPI

CITY           SKY/WX    TMP DP  RH WIND       PRES   REMARKS
BELMONT        FAIR      45  23  42 NW14G21   30.15R
COLUMBUS AFB   SUNNY     48  27  43 N20G29    30.15
CORINTH        FAIR      45  23  42 N17G28    30.18R
GOLDN TRIANGLE MOSUNNY   48  30  49 NW15G25   30.18R
STARKVILLE     FAIR      46  28  49 N12G25    30.17R
TUPELO         SUNNY     47  25  42 N16G32    30.18R
$$

MSZ040-058-151800-
CENTRAL MISSISSIPPI

CITY           SKY/WX    TMP DP  RH WIND       PRES   REMARKS
JACKSON INTL   SUNNY     50  28  42 NW13G21   30.21R
JACKSON HAWKNS SUNNY     49  24  37 N15G28    30.21S
MERIDIAN KEY   MOSUNNY   51  32  48 N18G28    30.13S
MERIDIAN NAS   MOSUNNY   50  30  46 N17G25    30.14S
RAYMOND        FAIR      48  45  87 NW16G23   30.23R
VICKSBURG      SUNNY     50  29  44 N17G28    30.26S
$$

MSZ059>079-151800-
SOUTH MISSISSIPPI

CITY           SKY/WX    TMP DP  RH WIND       PRES   REMARKS
BROOKHAVEN     FAIR      50  32  50 N15G26    30.20S
COLUMBIA       FAIR      52  28  40 MISG      30.15F
HATTIESBURG    MOSUNNY   52  34  50 N20G29    30.15F
MCCOMB         SUNNY     52  28  39 N18G26    30.17F
NATCHEZ        SUNNY     50  30  46 N18G29    30.22F
PINE BELT      SUNNY     52  30  43 N16G29    30.15F
$$

MSZ080>082-151800-
COASTAL MISSISSIPPI

CITY           SKY/WX    TMP DP  RH WIND       PRES   REMARKS
BAY ST LOUIS   MOSUNNY   54  37  54 N23G31    30.12S
BILOXI         MOSUNNY   51  39  64 N23G31    30.10
PASCAGOULA     CLOUDY    49  39  68 N21G33    30.09R
GULFPORT       MOSUNNY   54  37  52 N22G32    30.10S
$$



USA.gov is the U.S. government's official web portal to all federal, state and local government web resources and services.